Time,TemperatureF,DewpointF,PressureIn,WindDirection,WindDirectionDegrees,WindSpeedMPH,WindSpeedGustMPH,Humidity,HourlyPrecipIn,Conditions,Clouds,dailyrainin,SoftwareType,DateUTC
2013-04-21 00:00:00,35.5,27.7,30.33,WNW,285,0.0,0.0,73,0.00,,,0.00,Wunderground v.1.15,2013-04-21 04:00:00,
2013-04-21 00:05:00,35.2,27.4,30.33,WNW,285,0.0,0.0,73,0.00,,,0.00,Wunderground v.1.15,2013-04-21 04:05:00,
2013-04-21 00:10:00,34.9,27.8,30.33,WNW,285,0.0,0.0,75,0.00,,,0.00,Wunderground v.1.15,2013-04-21 04:10:00,
2013-04-21 00:15:00,34.9,27.8,30.33,WNW,285,0.0,0.0,75,0.00,,,0.00,Wunderground v.1.15,2013-04-21 04:15:00,
2013-04-21 00:20:00,34.7,27.6,30.33,WNW,285,0.0,0.0,75,0.00,,,0.00,Wunderground v.1.15,2013-04-21 04:20:00,
2013-04-21 00:30:00,34.4,27.9,30.33,WNW,284,0.0,0.0,77,0.00,,,0.00,Wunderground v.1.15,2013-04-21 04:30:00,
2013-04-21 00:40:00,34.0,27.9,30.33,WNW,285,0.0,0.0,78,0.00,,,0.00,Wunderground v.1.15,2013-04-21 04:40:00,
2013-04-21 00:45:00,33.8,27.7,30.33,WNW,285,0.0,0.0,78,0.00,,,0.00,Wunderground v.1.15,2013-04-21 04:45:00,
2013-04-21 00:50:00,33.7,27.9,30.34,WNW,285,0.0,0.0,79,0.00,,,0.00,Wunderground v.1.15,2013-04-21 04:50:00,
2013-04-21 00:55:00,33.5,27.7,30.34,WNW,285,0.0,0.0,79,0.00,,,0.00,Wunderground v.1.15,2013-04-21 04:55:00,
2013-04-21 01:00:00,33.2,27.4,30.34,WNW,284,0.0,0.0,79,0.00,,,0.00,Wunderground v.1.15,2013-04-21 05:00:00,
2013-04-21 01:10:00,33.1,27.6,30.34,WNW,285,0.0,0.0,80,0.00,,,0.00,Wunderground v.1.15,2013-04-21 05:10:00,
2013-04-21 01:15:00,32.9,27.7,30.34,WNW,285,0.0,0.0,81,0.00,,,0.00,Wunderground v.1.15,2013-04-21 05:15:00,
2013-04-21 01:25:00,32.8,27.6,30.34,WNW,285,0.0,0.0,81,0.00,,,0.00,Wunderground v.1.15,2013-04-21 05:25:00,
2013-04-21 01:35:00,32.5,27.3,30.34,WNW,285,0.0,0.0,81,0.00,,,0.00,Wunderground v.1.15,2013-04-21 05:35:00,
2013-04-21 01:40:00,32.4,27.5,30.35,WNW,285,0.0,0.0,82,0.00,,,0.00,Wunderground v.1.15,2013-04-21 05:40:00,
2013-04-21 01:45:00,32.4,28.1,30.34,WNW,285,0.0,0.0,84,0.00,,,0.00,Wunderground v.1.15,2013-04-21 05:45:00,
2013-04-21 01:55:00,32.2,27.6,30.35,WNW,285,0.0,0.0,83,0.00,,,0.00,Wunderground v.1.15,2013-04-21 05:55:00,
2013-04-21 02:05:00,31.8,27.5,30.35,WNW,285,0.0,0.0,84,0.00,,,0.00,Wunderground v.1.15,2013-04-21 06:05:00,
2013-04-21 02:10:00,31.6,27.6,30.35,WNW,285,0.0,0.0,85,0.00,,,0.00,Wunderground v.1.15,2013-04-21 06:10:00,
2013-04-21 02:20:00,31.5,27.5,30.35,WNW,285,0.0,0.0,85,0.00,,,0.00,Wunderground v.1.15,2013-04-21 06:20:00,
2013-04-21 02:30:00,31.5,27.5,30.34,WNW,284,0.0,0.0,85,0.00,,,0.00,Wunderground v.1.15,2013-04-21 06:30:00,
2013-04-21 02:40:00,31.3,27.9,30.34,WNW,285,0.0,0.0,87,0.00,,,0.00,Wunderground v.1.15,2013-04-21 06:40:00,
2013-04-21 02:50:00,31.2,27.5,30.35,WNW,285,0.0,0.0,86,0.00,,,0.00,Wunderground v.1.15,2013-04-21 06:50:00,
2013-04-21 03:00:00,31.0,27.6,30.35,WNW,285,0.0,0.0,87,0.00,,,0.00,Wunderground v.1.15,2013-04-21 07:00:00,
2013-04-21 03:10:00,30.9,27.8,30.35,WNW,284,0.0,0.0,88,0.00,,,0.00,Wunderground v.1.15,2013-04-21 07:10:00,
2013-04-21 03:20:00,30.7,27.6,30.35,WNW,285,0.0,0.0,88,0.00,,,0.00,Wunderground v.1.15,2013-04-21 07:20:00,
2013-04-21 03:25:00,30.7,27.6,30.35,WNW,285,0.0,0.0,88,0.00,,,0.00,Wunderground v.1.15,2013-04-21 07:25:00,
2013-04-21 03:35:00,30.7,27.8,30.35,WNW,285,0.0,0.0,89,0.00,,,0.00,Wunderground v.1.15,2013-04-21 07:35:00,
2013-04-21 03:40:00,30.9,28.0,30.36,WNW,285,0.0,0.0,89,0.00,,,0.00,Wunderground v.1.15,2013-04-21 07:40:00,
2013-04-21 03:50:00,30.9,28.3,30.36,WNW,285,0.0,0.0,90,0.00,,,0.00,Wunderground v.1.15,2013-04-21 07:50:00,
2013-04-21 04:00:00,30.7,27.8,30.36,WNW,285,0.0,0.0,89,0.00,,,0.00,Wunderground v.1.15,2013-04-21 08:00:00,
2013-04-21 04:10:00,30.3,27.7,30.36,WNW,285,0.0,0.0,90,0.00,,,0.00,Wunderground v.1.15,2013-04-21 08:10:00,
2013-04-21 04:20:00,30.6,28.0,30.36,WNW,285,0.0,0.0,90,0.00,,,0.00,Wunderground v.1.15,2013-04-21 08:20:00,
2013-04-21 04:30:00,31.9,28.2,30.37,WNW,285,0.0,0.0,86,0.00,,,0.00,Wunderground v.1.15,2013-04-21 08:30:00,
2013-04-21 04:40:00,31.9,27.6,30.37,WNW,285,0.0,0.0,84,0.00,,,0.00,Wunderground v.1.15,2013-04-21 08:40:00,
2013-04-21 04:50:00,31.2,27.5,30.37,WNW,285,0.0,0.0,86,0.00,,,0.00,Wunderground v.1.15,2013-04-21 08:50:00,
2013-04-21 05:00:00,30.9,27.5,30.38,WNW,285,0.0,0.0,87,0.00,,,0.00,Wunderground v.1.15,2013-04-21 09:00:00,
2013-04-21 05:10:00,30.3,26.9,30.38,WNW,285,0.0,0.0,87,0.00,,,0.00,Wunderground v.1.15,2013-04-21 09:10:00,
2013-04-21 05:20:00,30.0,26.9,30.38,WNW,285,0.0,0.0,88,0.00,,,0.00,Wunderground v.1.15,2013-04-21 09:20:00,
2013-04-21 05:25:00,30.0,27.2,30.38,WNW,284,0.0,0.0,89,0.00,,,0.00,Wunderground v.1.15,2013-04-21 09:25:00,
2013-04-21 05:35:00,29.8,27.0,30.38,WNW,285,0.0,0.0,89,0.00,,,0.00,Wunderground v.1.15,2013-04-21 09:35:00,
2013-04-21 05:40:00,30.0,27.4,30.38,WNW,285,0.0,0.0,90,0.00,,,0.00,Wunderground v.1.15,2013-04-21 09:40:00,
2013-04-21 05:50:00,29.8,27.0,30.39,WNW,285,0.0,0.0,89,0.00,,,0.00,Wunderground v.1.15,2013-04-21 09:50:00,
2013-04-21 06:00:00,29.8,27.0,30.39,WNW,285,0.0,0.0,89,0.00,,,0.00,Wunderground v.1.15,2013-04-21 10:00:00,
2013-04-21 06:10:00,29.8,27.2,30.39,WNW,284,0.0,0.0,90,0.00,,,0.00,Wunderground v.1.15,2013-04-21 10:10:00,
2013-04-21 06:20:00,30.0,27.4,30.40,WNW,285,0.0,0.0,90,0.00,,,0.00,Wunderground v.1.15,2013-04-21 10:20:00,
2013-04-21 06:25:00,30.0,27.4,30.41,WNW,285,0.0,0.0,90,0.00,,,0.00,Wunderground v.1.15,2013-04-21 10:25:00,
2013-04-21 06:35:00,29.8,27.2,30.41,WNW,285,0.0,0.0,90,0.00,,,0.00,Wunderground v.1.15,2013-04-21 10:35:00,
2013-04-21 06:45:00,29.8,27.2,30.41,WNW,285,0.0,0.0,90,0.00,,,0.00,Wunderground v.1.15,2013-04-21 10:45:00,
2013-04-21 06:50:00,29.8,27.2,30.41,WNW,285,0.0,0.0,90,0.00,,,0.00,Wunderground v.1.15,2013-04-21 10:50:00,
2013-04-21 07:00:00,29.7,27.1,30.42,WNW,285,0.0,0.0,90,0.00,,,0.00,Wunderground v.1.15,2013-04-21 11:00:00,
2013-04-21 07:10:00,29.7,27.4,30.43,WNW,285,0.0,0.0,91,0.00,,,0.00,Wunderground v.1.15,2013-04-21 11:10:00,
2013-04-21 07:20:00,30.3,28.0,30.43,WNW,285,0.0,0.0,91,0.00,,,0.00,Wunderground v.1.15,2013-04-21 11:20:00,
2013-04-21 07:30:00,31.2,28.6,30.43,WNW,285,0.0,0.0,90,0.00,,,0.00,Wunderground v.1.15,2013-04-21 11:30:00,
2013-04-21 07:40:00,32.7,29.0,30.44,WNW,284,0.0,0.0,86,0.00,,,0.00,Wunderground v.1.15,2013-04-21 11:40:00,
2013-04-21 07:45:00,33.2,29.2,30.44,WNW,296,0.0,0.0,85,0.00,,,0.00,Wunderground v.1.15,2013-04-21 11:45:00,
2013-04-21 07:55:00,34.9,30.0,30.44,WSW,257,0.0,0.0,82,0.00,,,0.00,Wunderground v.1.15,2013-04-21 11:55:00,
2013-04-21 08:00:00,35.5,29.9,30.44,WSW,257,0.0,0.0,80,0.00,,,0.00,Wunderground v.1.15,2013-04-21 12:00:00,
2013-04-21 08:05:00,36.0,29.2,30.44,WSW,257,0.0,0.0,76,0.00,,,0.00,Wunderground v.1.15,2013-04-21 12:05:00,
2013-04-21 08:15:00,37.5,30.9,30.44,WSW,257,0.0,0.0,77,0.00,,,0.00,Wunderground v.1.15,2013-04-21 12:15:00,
2013-04-21 08:20:00,38.2,31.3,30.44,WSW,257,0.0,0.0,76,0.00,,,0.00,Wunderground v.1.15,2013-04-21 12:20:00,
2013-04-21 08:25:00,38.8,31.6,30.44,WSW,257,0.0,0.0,75,0.00,,,0.00,Wunderground v.1.15,2013-04-21 12:25:00,
2013-04-21 08:30:00,39.3,31.7,30.44,WSW,257,0.0,0.0,74,0.00,,,0.00,Wunderground v.1.15,2013-04-21 12:30:00,
2013-04-21 08:40:00,40.5,31.8,30.44,West,267,0.0,0.0,71,0.00,,,0.00,Wunderground v.1.15,2013-04-21 12:40:00,
2013-04-21 08:45:00,41.2,32.5,30.45,West,267,0.0,0.0,71,0.00,,,0.00,Wunderground v.1.15,2013-04-21 12:45:00,
2013-04-21 08:50:00,42.2,32.0,30.45,NNE,25,0.0,5.0,67,0.00,,,0.00,Wunderground v.1.15,2013-04-21 12:50:00,
2013-04-21 08:55:00,43.1,31.4,30.44,NNE,32,2.0,6.0,63,0.00,,,0.00,Wunderground v.1.15,2013-04-21 12:55:00,
2013-04-21 09:05:00,44.6,29.9,30.45,NE,53,6.0,7.0,56,0.00,,,0.00,Wunderground v.1.15,2013-04-21 13:05:00,
2013-04-21 09:10:00,45.2,30.4,30.45,NE,50,6.0,7.0,56,0.00,,,0.00,Wunderground v.1.15,2013-04-21 13:10:00,
2013-04-21 09:15:00,45.7,30.0,30.45,NNE,33,6.0,7.0,54,0.00,,,0.00,Wunderground v.1.15,2013-04-21 13:15:00,
2013-04-21 09:20:00,46.2,30.5,30.45,NE,43,6.0,6.0,54,0.00,,,0.00,Wunderground v.1.15,2013-04-21 13:20:00,
2013-04-21 09:25:00,47.0,31.2,30.46,NNE,23,6.0,6.0,54,0.00,,,0.00,Wunderground v.1.15,2013-04-21 13:25:00,
2013-04-21 09:30:00,47.6,31.8,30.45,NE,38,6.0,6.0,54,0.00,,,0.00,Wunderground v.1.15,2013-04-21 13:30:00,
2013-04-21 09:35:00,47.1,28.9,30.45,NNE,26,6.0,8.0,49,0.00,,,0.00,Wunderground v.1.15,2013-04-21 13:35:00,
2013-04-21 09:50:00,47.3,30.1,30.45,NE,46,5.0,5.0,51,0.00,,,0.00,Wunderground v.1.15,2013-04-21 13:50:00,
2013-04-21 10:05:00,47.9,31.6,30.46,NE,53,5.0,5.0,53,0.00,,,0.00,Wunderground v.1.15,2013-04-21 14:05:00,
2013-04-21 10:10:00,48.8,31.9,30.46,ENE,59,4.0,5.0,52,0.00,,,0.00,Wunderground v.1.15,2013-04-21 14:10:00,
2013-04-21 10:20:00,49.5,30.6,30.46,NNE,32,4.0,4.0,48,0.00,,,0.00,Wunderground v.1.15,2013-04-21 14:20:00,
2013-04-21 10:30:00,49.9,31.5,30.46,NE,42,4.0,4.0,49,0.00,,,0.00,Wunderground v.1.15,2013-04-21 14:30:00,
2013-04-21 10:40:00,50.2,30.7,30.47,NNE,13,3.0,4.0,47,0.00,,,0.00,Wunderground v.1.15,2013-04-21 14:40:00,
2013-04-21 10:50:00,50.7,32.2,30.46,NE,50,2.0,3.0,49,0.00,,,0.00,Wunderground v.1.15,2013-04-21 14:50:00,
2013-04-21 10:55:00,50.8,30.7,30.46,North,5,2.0,2.0,46,0.00,,,0.00,Wunderground v.1.15,2013-04-21 14:55:00,
2013-04-21 11:00:00,50.8,30.2,30.46,NNE,25,2.0,2.0,45,0.00,,,0.00,Wunderground v.1.15,2013-04-21 15:00:00,
2013-04-21 11:10:00,51.4,30.2,30.46,ENE,57,2.0,2.0,44,0.00,,,0.00,Wunderground v.1.15,2013-04-21 15:10:00,
2013-04-21 11:15:00,51.4,30.2,30.46,North,360,2.0,2.0,44,0.00,,,0.00,Wunderground v.1.15,2013-04-21 15:15:00,
2013-04-21 11:25:00,52.2,33.1,30.46,NNE,24,2.0,3.0,48,0.00,,,0.00,Wunderground v.1.15,2013-04-21 15:25:00,
2013-04-21 11:30:00,52.3,31.6,30.46,NNE,13,1.0,1.0,45,0.00,,,0.00,Wunderground v.1.15,2013-04-21 15:30:00,
2013-04-21 11:40:00,52.6,33.5,30.46,NE,39,1.0,2.0,48,0.00,,,0.00,Wunderground v.1.15,2013-04-21 15:40:00,
2013-04-21 11:45:00,52.6,32.4,30.46,NE,41,2.0,2.0,46,0.00,,,0.00,Wunderground v.1.15,2013-04-21 15:45:00,
2013-04-21 11:50:00,52.5,32.3,30.46,NE,38,1.0,1.0,46,0.00,,,0.00,Wunderground v.1.15,2013-04-21 15:50:00,
2013-04-21 11:55:00,52.5,32.3,30.46,NNE,32,1.0,1.0,46,0.00,,,0.00,Wunderground v.1.15,2013-04-21 15:55:00,
2013-04-21 12:05:00,52.6,31.3,30.46,NNE,20,1.0,3.0,44,0.00,,,0.00,Wunderground v.1.15,2013-04-21 16:05:00,
2013-04-21 12:10:00,53.1,34.9,30.45,NE,50,1.0,1.0,50,0.00,,,0.00,Wunderground v.1.15,2013-04-21 16:10:00,
2013-04-21 12:15:00,53.2,31.8,30.45,North,351,1.0,1.0,44,0.00,,,0.00,Wunderground v.1.15,2013-04-21 16:15:00,
2013-04-21 12:25:00,53.9,35.7,30.45,NE,37,2.0,2.0,50,0.00,,,0.00,Wunderground v.1.15,2013-04-21 16:25:00,
2013-04-21 12:30:00,53.9,33.0,30.44,ENE,61,1.0,1.0,45,0.00,,,0.00,Wunderground v.1.15,2013-04-21 16:30:00,
2013-04-21 12:40:00,54.4,32.3,30.44,NNE,32,0.0,4.0,43,0.00,,,0.00,Wunderground v.1.15,2013-04-21 16:40:00,
2013-04-21 12:50:00,54.7,31.4,30.43,NE,35,1.0,1.0,41,0.00,,,0.00,Wunderground v.1.15,2013-04-21 16:50:00,
2013-04-21 12:55:00,54.2,29.1,30.43,NE,38,0.0,1.0,38,0.00,,,0.00,Wunderground v.1.15,2013-04-21 16:55:00,
2013-04-21 13:15:00,55.0,31.7,30.43,NE,46,1.0,1.0,41,0.00,,,0.00,Wunderground v.1.15,2013-04-21 17:15:00,
2013-04-21 13:25:00,54.5,30.6,30.42,NNE,16,1.0,1.0,40,0.00,,,0.00,Wunderground v.1.15,2013-04-21 17:25:00,
2013-04-21 13:35:00,55.0,31.7,30.42,NNE,33,1.0,1.0,41,0.00,,,0.00,Wunderground v.1.15,2013-04-21 17:35:00,
2013-04-21 13:45:00,55.7,32.9,30.42,NNE,26,1.0,1.0,42,0.00,,,0.00,Wunderground v.1.15,2013-04-21 17:45:00,
2013-04-21 13:50:00,56.0,33.8,30.41,NNE,26,0.0,1.0,43,0.00,,,0.00,Wunderground v.1.15,2013-04-21 17:50:00,
2013-04-21 14:00:00,56.6,29.9,30.41,NNE,26,1.0,1.0,36,0.00,,,0.00,Wunderground v.1.15,2013-04-21 18:00:00,
2013-04-21 14:15:00,55.7,29.1,30.41,NW,325,2.0,2.0,36,0.00,,,0.00,Wunderground v.1.15,2013-04-21 18:15:00,
2013-04-21 14:30:00,56.3,34.6,30.40,NE,52,0.0,6.0,44,0.00,,,0.00,Wunderground v.1.15,2013-04-21 18:30:00,
2013-04-21 14:45:00,57.2,34.3,30.40,NNE,17,2.0,2.0,42,0.00,,,0.00,Wunderground v.1.15,2013-04-21 18:45:00,
2013-04-21 14:50:00,57.5,30.0,30.40,NW,313,1.0,2.0,35,0.00,,,0.00,Wunderground v.1.15,2013-04-21 18:50:00,
2013-04-21 15:00:00,57.3,33.2,30.40,NNE,20,1.0,5.0,40,0.00,,,0.00,Wunderground v.1.15,2013-04-21 19:00:00,
2013-04-21 15:05:00,57.0,29.6,30.40,North,5,1.0,5.0,35,0.00,,,0.00,Wunderground v.1.15,2013-04-21 19:05:00,
2013-04-21 15:10:00,57.6,30.8,30.40,West,279,1.0,7.0,36,0.00,,,0.00,Wunderground v.1.15,2013-04-21 19:10:00,
2013-04-21 15:20:00,58.4,33.5,30.39,North,5,2.0,2.0,39,0.00,,,0.00,Wunderground v.1.15,2013-04-21 19:20:00,
2013-04-21 15:30:00,58.1,31.3,30.39,NNE,31,2.0,2.0,36,0.00,,,0.00,Wunderground v.1.15,2013-04-21 19:30:00,
2013-04-21 15:35:00,58.0,31.2,30.39,NNE,24,1.0,2.0,36,0.00,,,0.00,Wunderground v.1.15,2013-04-21 19:35:00,
2013-04-21 15:40:00,57.6,30.8,30.38,North,360,0.0,3.0,36,0.00,,,0.00,Wunderground v.1.15,2013-04-21 19:40:00,
2013-04-21 15:50:00,57.2,34.3,30.38,NNE,30,2.0,2.0,42,0.00,,,0.00,Wunderground v.1.15,2013-04-21 19:50:00,
2013-04-21 16:00:00,58.1,30.6,30.37,NE,35,1.0,1.0,35,0.00,,,0.00,Wunderground v.1.15,2013-04-21 20:00:00,
2013-04-21 16:10:00,58.7,36.2,30.37,NNW,346,1.0,1.0,43,0.00,,,0.00,Wunderground v.1.15,2013-04-21 20:10:00,
2013-04-21 16:20:00,59.2,32.9,30.36,NNE,32,3.0,3.0,37,0.00,,,0.00,Wunderground v.1.15,2013-04-21 20:20:00,
2013-04-21 16:25:00,58.9,32.7,30.36,NNE,23,3.0,7.0,37,0.00,,,0.00,Wunderground v.1.15,2013-04-21 20:25:00,
2013-04-21 16:35:00,59.2,34.2,30.35,NE,40,4.0,7.0,39,0.00,,,0.00,Wunderground v.1.15,2013-04-21 20:35:00,
2013-04-21 16:40:00,59.2,34.9,30.35,NNE,16,4.0,4.0,40,0.00,,,0.00,Wunderground v.1.15,2013-04-21 20:40:00,
2013-04-21 16:50:00,59.3,31.6,30.35,ENE,63,4.0,4.0,35,0.00,,,0.00,Wunderground v.1.15,2013-04-21 20:50:00,
2013-04-21 17:00:00,58.7,33.8,30.35,NNE,29,4.0,4.0,39,0.00,,,0.00,Wunderground v.1.15,2013-04-21 21:00:00,
2013-04-21 17:05:00,58.7,32.5,30.35,NE,35,2.0,5.0,37,0.00,,,0.00,Wunderground v.1.15,2013-04-21 21:05:00,
2013-04-21 17:15:00,59.0,31.4,30.34,North,9,5.0,5.0,35,0.00,,,0.00,Wunderground v.1.15,2013-04-21 21:15:00,
2013-04-21 17:25:00,59.8,34.1,30.34,NNE,26,4.0,4.0,38,0.00,,,0.00,Wunderground v.1.15,2013-04-21 21:25:00,
2013-04-21 17:30:00,59.5,35.1,30.34,NE,42,5.0,8.0,40,0.00,,,0.00,Wunderground v.1.15,2013-04-21 21:30:00,
2013-04-21 17:40:00,59.0,34.7,30.34,NNE,17,6.0,7.0,40,0.00,,,0.00,Wunderground v.1.15,2013-04-21 21:40:00,
2013-04-21 17:50:00,58.9,35.2,30.34,NNE,12,7.0,10.0,41,0.00,,,0.00,Wunderground v.1.15,2013-04-21 21:50:00,
2013-04-21 18:00:00,58.4,36.0,30.34,NE,48,6.0,11.0,43,0.00,,,0.00,Wunderground v.1.15,2013-04-21 22:00:00,
2013-04-21 18:05:00,58.4,34.8,30.34,NE,53,6.0,11.0,41,0.00,,,0.00,Wunderground v.1.15,2013-04-21 22:05:00,
2013-04-21 18:10:00,58.1,34.5,30.34,NE,46,7.0,7.0,41,0.00,,,0.00,Wunderground v.1.15,2013-04-21 22:10:00,
2013-04-21 18:15:00,58.0,35.6,30.34,NE,46,7.0,7.0,43,0.00,,,0.00,Wunderground v.1.15,2013-04-21 22:15:00,
2013-04-21 18:20:00,57.8,35.4,30.34,NE,44,7.0,7.0,43,0.00,,,0.00,Wunderground v.1.15,2013-04-21 22:20:00,
2013-04-21 18:25:00,57.6,36.4,30.34,NE,40,7.0,8.0,45,0.00,,,0.00,Wunderground v.1.15,2013-04-21 22:25:00,
2013-04-21 18:30:00,57.5,36.3,30.34,NE,49,7.0,7.0,45,0.00,,,0.00,Wunderground v.1.15,2013-04-21 22:30:00,
2013-04-21 18:35:00,57.3,35.6,30.34,ENE,57,7.0,7.0,44,0.00,,,0.00,Wunderground v.1.15,2013-04-21 22:35:00,
2013-04-21 18:40:00,57.2,35.5,30.35,North,5,6.0,11.0,44,0.00,,,0.00,Wunderground v.1.15,2013-04-21 22:40:00,
2013-04-21 18:45:00,57.0,34.7,30.35,ENE,67,7.0,11.0,43,0.00,,,0.00,Wunderground v.1.15,2013-04-21 22:45:00,
2013-04-21 18:50:00,56.6,33.8,30.35,NE,46,8.0,8.0,42,0.00,,,0.00,Wunderground v.1.15,2013-04-21 22:50:00,
2013-04-21 19:00:00,56.3,34.6,30.35,ENE,65,5.0,8.0,44,0.00,,,0.00,Wunderground v.1.15,2013-04-21 23:00:00,
2013-04-21 19:10:00,55.6,34.0,30.35,NE,41,5.0,5.0,44,0.00,,,0.00,Wunderground v.1.15,2013-04-21 23:10:00,
2013-04-21 19:20:00,55.0,35.1,30.35,NE,51,5.0,5.0,47,0.00,,,0.00,Wunderground v.1.15,2013-04-21 23:20:00,
2013-04-21 19:30:00,54.5,34.7,30.35,NE,42,3.0,3.0,47,0.00,,,0.00,Wunderground v.1.15,2013-04-21 23:30:00,
2013-04-21 19:35:00,54.4,34.0,30.35,ENE,72,1.0,3.0,46,0.00,,,0.00,Wunderground v.1.15,2013-04-21 23:35:00,
2013-04-21 19:40:00,54.1,35.3,30.35,ENE,72,0.0,0.0,49,0.00,,,0.00,Wunderground v.1.15,2013-04-21 23:40:00,
2013-04-21 19:46:00,53.5,34.3,30.36,ENE,72,0.0,1.0,48,0.00,,,0.00,Wunderground v.1.15,2013-04-21 23:46:00,
2013-04-21 19:55:00,52.6,34.0,30.36,NE,41,0.0,0.0,49,0.00,,,0.00,Wunderground v.1.15,2013-04-21 23:55:00,
2013-04-21 20:00:00,52.0,34.9,30.37,NE,41,0.0,0.0,52,0.00,,,0.00,Wunderground v.1.15,2013-04-22 00:00:00,
2013-04-21 20:10:00,50.8,33.3,30.37,NE,41,0.0,0.0,51,0.00,,,0.00,Wunderground v.1.15,2013-04-22 00:10:00,
2013-04-21 20:20:00,50.4,33.4,30.38,NE,55,0.0,0.0,52,0.00,,,0.00,Wunderground v.1.15,2013-04-22 00:20:00,
2013-04-21 20:30:00,49.8,34.3,30.38,NE,55,0.0,0.0,55,0.00,,,0.00,Wunderground v.1.15,2013-04-22 00:30:00,
2013-04-21 20:35:00,49.2,34.2,30.38,NE,55,0.0,0.0,56,0.00,,,0.00,Wunderground v.1.15,2013-04-22 00:35:00,
2013-04-21 20:45:00,47.7,33.6,30.39,NE,55,0.0,0.0,58,0.00,,,0.00,Wunderground v.1.15,2013-04-22 00:45:00,
2013-04-21 20:50:00,47.3,33.7,30.39,NE,55,0.0,0.0,59,0.00,,,0.00,Wunderground v.1.15,2013-04-22 00:50:00,
2013-04-21 21:00:00,46.5,33.4,30.40,NE,55,0.0,0.0,60,0.00,,,0.00,Wunderground v.1.15,2013-04-22 01:00:00,
2013-04-21 21:10:00,47.0,33.4,30.40,East,86,0.0,0.0,59,0.00,,,0.00,Wunderground v.1.15,2013-04-22 01:10:00,
2013-04-21 21:15:00,47.0,33.4,30.40,East,86,0.0,0.0,59,0.00,,,0.00,Wunderground v.1.15,2013-04-22 01:15:00,
2013-04-21 21:25:00,47.1,33.1,30.41,East,85,0.0,0.0,58,0.00,,,0.00,Wunderground v.1.15,2013-04-22 01:25:00,
2013-04-21 21:30:00,47.1,33.5,30.41,East,85,0.0,0.0,59,0.00,,,0.00,Wunderground v.1.15,2013-04-22 01:30:00,
2013-04-21 21:35:00,46.8,33.6,30.41,East,85,0.0,0.0,60,0.00,,,0.00,Wunderground v.1.15,2013-04-22 01:35:00,
2013-04-21 21:40:00,46.5,33.4,30.41,East,85,0.0,0.0,60,0.00,,,0.00,Wunderground v.1.15,2013-04-22 01:40:00,
2013-04-21 21:50:00,46.1,33.4,30.42,East,84,0.0,0.0,61,0.00,,,0.00,Wunderground v.1.15,2013-04-22 01:50:00,
2013-04-21 21:55:00,46.1,33.4,30.42,NE,46,0.0,0.0,61,0.00,,,0.00,Wunderground v.1.15,2013-04-22 01:55:00,
2013-04-21 22:00:00,46.4,33.3,30.42,NE,46,0.0,0.0,60,0.00,,,0.00,Wunderground v.1.15,2013-04-22 02:00:00,
2013-04-21 22:10:00,46.7,33.1,30.43,NE,45,0.0,0.0,59,0.00,,,0.00,Wunderground v.1.15,2013-04-22 02:10:00,
2013-04-21 22:20:00,46.5,33.4,30.43,NE,45,0.0,0.0,60,0.00,,,0.00,Wunderground v.1.15,2013-04-22 02:20:00,
2013-04-21 22:30:00,46.0,33.3,30.43,East,79,0.0,0.0,61,0.00,,,0.00,Wunderground v.1.15,2013-04-22 02:30:00,
2013-04-21 22:40:00,45.4,33.1,30.43,East,79,0.0,0.0,62,0.00,,,0.00,Wunderground v.1.15,2013-04-22 02:40:00,
2013-04-21 22:45:00,45.2,33.3,30.42,ENE,78,0.0,0.0,63,0.00,,,0.00,Wunderground v.1.15,2013-04-22 02:45:00,
2013-04-21 22:50:00,44.9,33.1,30.42,ENE,78,0.0,0.0,63,0.00,,,0.00,Wunderground v.1.15,2013-04-22 02:50:00,
2013-04-21 23:00:00,44.8,33.0,30.42,East,79,0.0,0.0,63,0.00,,,0.00,Wunderground v.1.15,2013-04-22 03:00:00,
2013-04-21 23:10:00,44.2,33.2,30.42,East,79,0.0,0.0,65,0.00,,,0.00,Wunderground v.1.15,2013-04-22 03:10:00,
2013-04-21 23:20:00,43.6,33.4,30.42,ENE,78,0.0,0.0,67,0.00,,,0.00,Wunderground v.1.15,2013-04-22 03:20:00,
2013-04-21 23:30:00,43.3,33.1,30.42,ENE,76,0.0,0.0,67,0.00,,,0.00,Wunderground v.1.15,2013-04-22 03:30:00,
2013-04-21 23:40:00,43.5,33.3,30.42,ENE,75,0.0,0.0,67,0.00,,,0.00,Wunderground v.1.15,2013-04-22 03:40:00,
2013-04-21 23:50:00,43.5,33.3,30.42,ENE,74,0.0,0.0,67,0.00,,,0.00,Wunderground v.1.15,2013-04-22 03:50:00,